Hourly Data Report for December 05, 2019

EUREKA CLIMATE
NUNAVUT
Current Station Operator: ECCC - MSC

79°59'21.000" N
85°56'02.000" W
10.00 m
2401199
71613
NEK

Download Data

Hourly Data (December 2019)
Hourly Data Report for December 5, 2019
TIME
LST
Temp Definition
°C
Dew Point Definition
°C
Rel Hum Definition
%
Precip. Amount Definition
mm

Wind Dir Definition
10's deg

Wind Spd Definition
km/h
Visibility Definition
km
Stn Press Definition
kPa
Hmdx Definition


Wind Chill Definition


Weather Definition


00:00 -32.5 -35.6 74 0.0 5 6   100.31   -39 LegendNANA
01:00 -30.6 -33.5 76 0.0 4 12   100.38   -41 LegendNANA
02:00 -32.1 -35.0 75 0.0 9 8   100.41   -40 LegendNANA
03:00 -32.4 -35.7 73 0.0 36 11   100.47   -43 LegendNANA
04:00 -32.5 -35.5 74 0.0 12 1   100.49   -34 LegendNANA
05:00 -32.4 -35.4 75 0.0   0   100.52     LegendNANA
06:00 -32.8 -35.9 74 0.0 16 1   100.54   -34 LegendNANA
07:00 -33.6 -36.9 72 0.0   0   100.57     LegendNANA
08:00 -31.4 -34.3 76 0.0 33 3   100.58   -35 LegendNANA
09:00 -28.2 -30.9 78 0.0 31 10   100.60   -37 LegendNANA
10:00 -30.2 -33.1 76 0.0 12 8   100.63   -38 LegendNANA
11:00 -29.4 -32.1 77 0.0 11 4   100.63   -34 LegendNANA
12:00 -28.5 -31.1 78 0.0 22 2   100.65   -31 LegendNANA
13:00 -25.2 -27.7 80 0.0 29 12   100.68   -34 LegendNANA
14:00 -28.0 -30.7 78 0.0 11 7   100.71   -35 LegendNANA
15:00 -27.8 -30.4 78 0.0 10 6   100.72   -34 LegendNANA
16:00 -28.6 -31.3 77 0.0 11 11   100.75   -38 LegendNANA
17:00 -28.8 -31.6 77 0.0 12 5   100.74   -34 LegendNANA
18:00 -28.4 -31.0 78 0.0 35 3   100.73   -32 LegendNANA
19:00 -28.2 -30.8 78 0.0 11 10   100.76   -37 LegendNANA
20:00 -28.0 -30.6 78 0.0 2 7   100.75   -35 LegendNANA
21:00 -27.5 -30.1 78 0.0 12 9   100.75   -36 LegendNANA
22:00 -28.2 -30.9 77 0.0 11 7   100.76   -35 LegendNANA
23:00 -29.7 -32.5 76 0.0 10 19   100.77   -42 LegendNANA

Notes on Data Quality.

Legend

  • E = Estimated
  • M = Missing
  • NA = Not Available*
  • [empty] = Indicates an unobserved value
Date modified: